Regional Weather Roundup
Issued by NWS Little Rock, AR

Home | Current Version | Previous Version | Graphics & Text | Print | Product List | Glossary On
Versions: 1 2 3 4 5 6 7 8 9 10 11 12 13 14 15 16 17 18 19 20 21 22 23 24 25 26 27 28 29 30 31 32 33 34 35 36 37 38 39 40 41 42 43 44 45 46 47 48 49 50
000
ASUS44 KLZK 040505
RWRLZK

WEATHER ROUNDUP FOR ARKANSAS
NATIONAL WEATHER SERVICE LITTLE ROCK AR
1100 PM CST TUE MAR 03 2015

NOTE: "FAIR" INDICATES FEW OR NO CLOUDS BELOW 12,000 FEET WITH NO
SIGNIFICANT WEATHER AND/OR OBSTRUCTIONS TO VISIBILITY.

ARZ001-003-010-029-040600-
NORTHWEST ARKANSAS

CITY           SKY/WX    TMP DP  RH WIND       PRES   REMARKS
FAYETTEVILLE   LGT RAIN  47  47 100 CALM      29.87F FOG
FORT SMITH     CLOUDY    45  43  93 CALM      29.89F FOG
HARRISON       LGT RAIN  45  45 100 CALM      29.89S FOG
BENTONVILLE    CLOUDY    46  45  93 CALM      29.88S
ROGERS         CLOUDY    46  45  96 SE8       29.87F
SILOAM SPGS    CLOUDY    46  43  87 SE3       29.88F
HIGHFILL       CLOUDY    47  46  97 S5        29.86F FOG
$$

ARZ004-005-016-040600-
NORTH CENTRAL ARKANSAS

CITY           SKY/WX    TMP DP  RH WIND       PRES   REMARKS
BATESVILLE     CLOUDY    52  50  93 W3        29.89S
FLIPPIN        CLOUDY    46  43  87 N6        29.89S
MTN HOME       CLOUDY    45  45 100 CALM      29.89S FOG
$$

ARZ040-041-040600-
WEST CENTRAL ARKANSAS

CITY           SKY/WX    TMP DP  RH WIND       PRES   REMARKS
MENA           CLOUDY    54  52  94 CALM      29.88S
MOUNT IDA      LGT RAIN  52  51  97 CALM      29.85S VSB 1
$$

ARZ009-017-025-026-028-040600-
NORTHEAST ARKANSAS

CITY           SKY/WX    TMP DP  RH WIND       PRES   REMARKS
CORNING        LGT RAIN  46  46 100 N5        29.90S
JONESBORO      CLOUDY    50  50 100 W3        29.88F FOG
NEWPORT        LGT RAIN  50  50 100 VRB3      29.90S VSB 3/4
WALNUT RIDGE   CLOUDY    48  45  87 N7        29.89R VSB 1
BLYTHEVILLE    LGT RAIN  51  51 100 W5        29.89F VSB 1
$$

ARZ022-023-033-042-044-040600-
CENTRAL ARKANSAS

CITY           SKY/WX    TMP DP  RH WIND       PRES   REMARKS
LITTLE ROCK    LGT RAIN  53  50  89 CALM      29.88S VSB 1/16
N LITTLE ROCK  CLOUDY    53  53 100 NW3       29.88S
JACKSONVILLE   DRZL/FOG  52  52 100 CALM      29.88S VSB 1/4
SEARCY         FOG       50  50 100 CALM      29.90S VSB 1/2
HOT SPRINGS    CLOUDY    52  52 100 CALM      29.87F FOG
RUSSELLVILLE   CLOUDY    47  46  97 CALM      29.89S
CLINTON        LGT RAIN  46  46 100 CALM      29.91S VSB 3/4
$$

ARZ036-040600-
EAST ARKANSAS

CITY           SKY/WX    TMP DP  RH WIND       PRES   REMARKS
WEST MEMPHIS   FOG       58  58 100 S9        29.86F VSB 1
$$

ARZ050-053-066-070-073-040600-
SOUTHWEST ARKANSAS

CITY           SKY/WX    TMP DP  RH WIND       PRES   REMARKS
ARKADELPHIA    CLOUDY    51  51 100 CALM      29.88R FOG
CAMDEN         MOCLDY    57  55  94 MISG      29.87F FOG
TEXARKANA      MOCLDY    63  62  97 S9        29.86S
EL DORADO      CLOUDY    65  62  90 S9        29.89R
DE QUEEN       LGT RAIN  50  50 100 SE3       29.86R FOG
$$

ARZ056-057-069-040600-
SOUTHEAST ARKANSAS

CITY           SKY/WX    TMP DP  RH WIND       PRES   REMARKS
PINE BLUFF     FOG       55  54  96 SE3       29.87F VSB 1/4
STUTTGART      CLOUDY    55  54  94 S8        29.88F VSB 3/4
MONTICELLO     MOCLDY    66  62  87 S13G20    29.88F

$$




USA.gov is the U.S. government's official web portal to all federal, state and local government web resources and services.